• In Czech Republic
  • List of Countries
  • For 7 days
  • Water Temperature
  • Satellite Maps
  • Weather Map
  • Weather Widgets
  • user-avatar
    Login

    Hourly Weather Paygusovo

    Today, 26 September, Wednesday

    Time Temperature Precipitation Wind Pressure Humidity
    00:00 +6°C° 0 mm 5 mps 742 mmHg 89%
    01:00 +6°C° 0 mm 5 mps 743 mmHg 89%
    02:00 +6°C° 0 mm 5 mps 743 mmHg 90%
    03:00 +6°C° 0 mm 5 mps 743 mmHg 90%
    04:00 +6°C° 0 mm 5 mps 744 mmHg 89%
    05:00 +7°C° 0 mm 5 mps 745 mmHg 88%
    06:00 +7°C° 0 mm 5 mps 745 mmHg 87%
    07:00 +7°C° 0 mm 5 mps 746 mmHg 85%
    08:00 +7°C° 0 mm 5 mps 747 mmHg 83%
    09:00 +7°C° 0 mm 5 mps 748 mmHg 82%
    10:00 +7°C° 0 mm 5 mps 748 mmHg 79%
    11:00 +8°C° 0 mm 5 mps 749 mmHg 76%
    12:00 +8°C° 0 mm 5 mps 749 mmHg 74%
    13:00 +8°C° 0 mm 5 mps 750 mmHg 72%
    14:00 +8°C° 0 mm 5 mps 750 mmHg 70%
    15:00 +8°C° 0 mm 4 mps 750 mmHg 68%
    16:00 +7°C° 0 mm 4 mps 751 mmHg 68%
    17:00 +8°C° 0 mm 3 mps 751 mmHg 69%
    18:00 +7°C° 0 mm 3 mps 751 mmHg 70%
    19:00 +5°C° 0 mm 3 mps 751 mmHg 72%
    20:00 +5°C° 0 mm 3 mps 751 mmHg 74%
    21:00 +4°C° 0 mm 3 mps 751 mmHg 76%
    22:00 +4°C° 0 mm 3 mps 750 mmHg 77%
    23:00 +3°C° 0 mm 3 mps 750 mmHg 78%

    Tomorrow, 27 September, Thursday

    Time Temperature Precipitation Wind Pressure Humidity
    00:00 +3°C° 0 mm 4 mps 749 mmHg 79%
    01:00 +3°C° 0 mm 4 mps 748 mmHg 78%
    02:00 +3°C° 0 mm 4 mps 748 mmHg 78%
    03:00 +2°C° 0 mm 5 mps 747 mmHg 78%
    04:00 +2°C° 0 mm 5 mps 746 mmHg 76%
    05:00 +2°C° 0 mm 6 mps 745 mmHg 74%
    06:00 +2°C° 0 mm 7 mps 744 mmHg 72%
    07:00 +3°C° 0.2 mm 7 mps 743 mmHg 71%
    08:00 +4°C° 0.2 mm 8 mps 743 mmHg 70%
    09:00 +4°C° 0.2 mm 8 mps 742 mmHg 69%
    10:00 +3°C° 0.8 mm 9 mps 741 mmHg 72%
    11:00 +3°C° 0.8 mm 9 mps 740 mmHg 75%
    12:00 +3°C° 0.8 mm 9 mps 739 mmHg 78%
    13:00 +3°C° 1 mm 9 mps 738 mmHg 80%
    14:00 +4°C° 1 mm 8 mps 738 mmHg 82%
    15:00 +4°C° 1 mm 8 mps 737 mmHg 84%
    16:00 +4°C° 0.5 mm 7 mps 737 mmHg 85%
    17:00 +5°C° 0.5 mm 6 mps 737 mmHg 86%
    18:00 +5°C° 0.5 mm 6 mps 737 mmHg 87%
    19:00 +6°C° 0.2 mm 5 mps 737 mmHg 86%
    20:00 +5°C° 0.2 mm 5 mps 737 mmHg 85%
    21:00 +5°C° 0.2 mm 5 mps 738 mmHg 84%
    22:00 +3°C° 0 mm 5 mps 738 mmHg 84%
    23:00 +3°C° 0 mm 5 mps 739 mmHg 85%

    Day after tomorrow, 28 September, Friday

    Time Temperature Precipitation Wind Pressure Humidity
    00:00 +3°C° 0 mm 5 mps 739 mmHg 85%
    01:00 +3°C° 0 mm 5 mps 739 mmHg 86%
    02:00 +2°C° 0 mm 5 mps 739 mmHg 87%
    03:00 +2°C° 0 mm 5 mps 740 mmHg 87%
    04:00 +2°C° 0 mm 5 mps 740 mmHg 88%
    05:00 +2°C° 0 mm 5 mps 740 mmHg 88%
    06:00 +2°C° 0 mm 5 mps 740 mmHg 89%
    07:00 +3°C° 0 mm 6 mps 740 mmHg 84%
    08:00 +4°C° 0 mm 6 mps 740 mmHg 80%
    09:00 +7°C° 0 mm 6 mps 740 mmHg 75%
    10:00 +5°C° 0.8 mm 6 mps 739 mmHg 78%
    11:00 +5°C° 0.8 mm 6 mps 738 mmHg 81%
    12:00 +5°C° 0.8 mm 6 mps 738 mmHg 84%
    13:00 +6°C° 1.7 mm 7 mps 737 mmHg 85%
    14:00 +8°C° 1.7 mm 7 mps 736 mmHg 85%
    15:00 +9°C° 1.7 mm 8 mps 735 mmHg 85%
    16:00 +9°C° 0.9 mm 8 mps 735 mmHg 85%
    17:00 +10°C° 0.9 mm 8 mps 734 mmHg 85%
    18:00 +10°C° 0.9 mm 9 mps 734 mmHg 85%
    19:00 +10°C° 0.7 mm 8 mps 735 mmHg 84%
    20:00 +9°C° 0.7 mm 8 mps 736 mmHg 83%
    21:00 +8°C° 0.7 mm 7 mps 737 mmHg 82%
    22:00 +5°C° 0 mm 6 mps 738 mmHg 84%
    23:00 +4°C° 0 mm 6 mps 739 mmHg 85%

    29 September, Saturday

    Time Temperature Precipitation Wind Pressure Humidity
    00:00 +3°C° 0 mm 5 mps 740 mmHg 87%
    01:00 +2°C° 0 mm 5 mps 741 mmHg 86%
    02:00 +2°C° 0 mm 5 mps 742 mmHg 86%
    03:00 +1°C° 0 mm 5 mps 742 mmHg 86%
    04:00 +1°C° 0 mm 5 mps 743 mmHg 85%
    05:00 0°C° 0 mm 5 mps 744 mmHg 84%
    06:00 0°C° 0 mm 5 mps 745 mmHg 83%
    07:00 +1°C° 0 mm 5 mps 745 mmHg 79%
    08:00 +2°C° 0 mm 6 mps 746 mmHg 75%
    09:00 +3°C° 0 mm 7 mps 746 mmHg 70%
    10:00 +4°C° 0 mm 7 mps 747 mmHg 65%
    11:00 +5°C° 0 mm 7 mps 747 mmHg 60%
    12:00 +6°C° 0 mm 7 mps 748 mmHg 55%
    13:00 +7°C° 0 mm 6 mps 748 mmHg 54%
    14:00 +7°C° 0 mm 6 mps 748 mmHg 53%
    15:00 +7°C° 0 mm 6 mps 749 mmHg 52%
    16:00 +6°C° 0 mm 5 mps 749 mmHg 56%
    17:00 +5°C° 0 mm 4 mps 750 mmHg 61%
    18:00 +4°C° 0 mm 3 mps 750 mmHg 65%
    19:00 +4°C° 0 mm 3 mps 750 mmHg 67%
    20:00 +3°C° 0 mm 3 mps 751 mmHg 68%
    21:00 +3°C° 0 mm 3 mps 751 mmHg 69%
    22:00 +3°C° 0 mm 3 mps 752 mmHg 71%
    23:00 +3°C° 0 mm 2 mps 752 mmHg 73%

    30 September, Sunday

    Time Temperature Precipitation Wind Pressure Humidity
    00:00 +3°C° 0 mm 2 mps 752 mmHg 75%
    01:00 +2°C° 0 mm 2 mps 752 mmHg 77%
    02:00 +2°C° 0 mm 2 mps 753 mmHg 79%
    03:00 +2°C° 0 mm 2 mps 753 mmHg 80%
    04:00 +1°C° 0 mm 2 mps 753 mmHg 82%
    05:00 +1°C° 0 mm 2 mps 753 mmHg 83%
    06:00 -1°C° 0 mm 2 mps 754 mmHg 85%
    07:00 +1°C° 0 mm 3 mps 754 mmHg 79%
    08:00 +2°C° 0 mm 3 mps 754 mmHg 73%
    09:00 +3°C° 0 mm 3 mps 754 mmHg 67%
    10:00 +4°C° 0 mm 3 mps 754 mmHg 62%
    11:00 +5°C° 0 mm 4 mps 754 mmHg 56%
    12:00 +6°C° 0 mm 4 mps 754 mmHg 51%
    13:00 +6°C° 0 mm 4 mps 754 mmHg 50%
    14:00 +6°C° 0 mm 4 mps 754 mmHg 49%
    15:00 +6°C° 0 mm 4 mps 754 mmHg 49%
    16:00 +5°C° 0 mm 3 mps 754 mmHg 54%
    17:00 +4°C° 0 mm 3 mps 754 mmHg 60%
    18:00 +4°C° 0 mm 2 mps 754 mmHg 66%
    19:00 +3°C° 0 mm 2 mps 754 mmHg 67%
    20:00 +2°C° 0 mm 2 mps 754 mmHg 68%
    21:00 +2°C° 0 mm 2 mps 754 mmHg 70%
    22:00 +1°C° 0 mm 2 mps 754 mmHg 69%
    23:00 +1°C° 0 mm 2 mps 754 mmHg 68%

    1 October, Monday

    Time Temperature Precipitation Wind Pressure Humidity
    00:00 +1°C° 0 mm 2 mps 754 mmHg 68%
    01:00 +1°C° 0 mm 2 mps 754 mmHg 68%
    02:00 0°C° 0 mm 3 mps 754 mmHg 69%
    03:00 0°C° 0 mm 3 mps 753 mmHg 69%
    04:00 0°C° 0 mm 3 mps 753 mmHg 73%
    05:00 0°C° 0 mm 3 mps 753 mmHg 76%
    06:00 0°C° 0 mm 3 mps 753 mmHg 80%
    07:00 +1°C° 0 mm 4 mps 753 mmHg 74%
    08:00 +4°C° 0 mm 4 mps 752 mmHg 69%
    09:00 +5°C° 0 mm 5 mps 752 mmHg 63%
    10:00 +7°C° 0 mm 5 mps 752 mmHg 60%
    11:00 +8°C° 0 mm 5 mps 752 mmHg 56%
    12:00 +10°C° 0 mm 6 mps 752 mmHg 53%
    13:00 +10°C° 0 mm 6 mps 752 mmHg 52%
    14:00 +10°C° 0 mm 5 mps 751 mmHg 52%
    15:00 +10°C° 0 mm 5 mps 751 mmHg 52%
    16:00 +9°C° 0 mm 5 mps 751 mmHg 58%
    17:00 +7°C° 0 mm 4 mps 751 mmHg 63%
    18:00 +7°C° 0 mm 3 mps 751 mmHg 69%
    19:00 +7°C° 0 mm 3 mps 751 mmHg 69%
    20:00 +7°C° 0 mm 3 mps 751 mmHg 70%
    21:00 +5°C° 0 mm 3 mps 751 mmHg 70%
    22:00 +5°C° 0 mm 3 mps 752 mmHg 71%
    23:00 +5°C° 0 mm 3 mps 752 mmHg 72%
    Show more